Change the Weather History Date:

Wednesday, May 22, 2013

  Actual Average (KHTS) Record (KHTS)
Temperature  
Mean Temperature 76 °F 65 °F  
Max Temperature 89 °F 77 °F 96 °F (1941)
Min Temperature 62 °F 54 °F 30 °F (2002)
Degree Days  
Heating Degree Days 0 3  
Month to date heating degree days 94  
Since 1 July heating degree days 4482  
Cooling Degree Days 10 3  
Month to date cooling degree days 46  
Year to date cooling degree days 78  
Growing Degree Days 26 (Base 50)    
Moisture  
Dew Point 62 °F    
Average Humidity 66    
Maximum Humidity 94    
Minimum Humidity 35    
Precipitation  
Precipitation 0.00 in 0.15 in 1.34 in (1913)
Month to date precipitation 3.27  
Year to date precipitation 16.65  
Snow  
Snow 0.00 in - - ()
Month to date snowfall  
Since 1 September snowfall  
Snow Depth -    
Sea Level Pressure  
Sea Level Pressure 29.87 in    
Wind  
Wind Speed 4 mph (SW)    
Max Wind Speed 14 mph    
Max Gust Speed 24 mph    
Visibility 10 miles    
Events Rain    
T = Trace of Precipitation, MM = Missing Value Source: NWS Daily Summary

Daily Weather History Graph

Daily Weather History Graph

Search for Another Location

Airport or City:

Trip Planner

Search our weather history database for the weather conditions in past years. The results will help you decide how hot, cold, wet, or windy it might be!

Date:

Astronomy

May. 22, 2013 Rise Set
Actual Time 6:10 AM EDT 8:40 PM EDT
Civil Twilight 5:39 AM EDT 9:11 PM EDT
Nautical Twilight 5:01 AM EDT 9:49 PM EDT
Astronomical Twilight 4:19 AM EDT 10:31 PM EDT
Moon 6:02 PM EDT (5/22) 4:11 AM EDT (5/22)
Length of Visible Light 15h 31m
Length of Day
14h 30m
Waxing Gibbous, 91% of the Moon is Illuminated
May 22
Waxing Gibbous
May 25
Full
May 31
Last Quarter
Jun 8
New
Jun 16
First Quarter

Hourly Weather History & Observations

Time (EDT) Temp. Heat Index Dew Point Humidity Pressure Visibility Wind Dir Wind Speed Gust Speed Precip Events Conditions
12:15 AM 68.0 °F - 64.4 °F 88% 29.94 in 10.0 mi Calm Calm - N/A   Clear
12:35 AM 68.0 °F - 64.4 °F 88% 29.94 in 10.0 mi SW 6.9 mph - N/A   Clear
12:55 AM 68.0 °F - 62.6 °F 83% 29.94 in 10.0 mi SSW 3.5 mph - N/A   Clear
1:15 AM 68.0 °F - 62.6 °F 83% 29.94 in 10.0 mi Calm Calm - N/A   Clear
1:35 AM 68.0 °F - 62.6 °F 83% 29.92 in 10.0 mi SW 5.8 mph - N/A   Scattered Clouds
1:55 AM 68.0 °F - 62.6 °F 83% 29.92 in 10.0 mi SW 4.6 mph - N/A   Scattered Clouds
2:15 AM 68.0 °F - 62.6 °F 83% 29.92 in 10.0 mi SW 3.5 mph - N/A   Clear
2:35 AM 66.2 °F - 62.6 °F 88% 29.90 in 10.0 mi Calm Calm - N/A   Scattered Clouds
2:55 AM 64.4 °F - 62.6 °F 94% 29.90 in 10.0 mi Calm Calm - N/A   Clear
3:15 AM 64.4 °F - 62.6 °F 94% 29.89 in 10.0 mi Calm Calm - N/A   Clear
3:35 AM 64.4 °F - 62.6 °F 94% 29.90 in 10.0 mi Calm Calm - N/A   Clear
3:55 AM 62.6 °F - 60.8 °F 94% 29.89 in 10.0 mi Calm Calm - N/A   Clear
4:15 AM 62.6 °F - 60.8 °F 94% 29.87 in 10.0 mi Calm Calm - N/A   Clear
4:35 AM 62.6 °F - 60.8 °F 94% 29.88 in 10.0 mi Calm Calm - N/A   Clear
4:55 AM 62.6 °F - 60.8 °F 94% 29.87 in 10.0 mi Calm Calm - N/A   Clear
5:15 AM 62.6 °F - 60.8 °F 94% 29.87 in 10.0 mi Calm Calm - N/A   Scattered Clouds
5:35 AM 62.6 °F - 60.8 °F 94% 29.89 in 10.0 mi Calm Calm - N/A   Mostly Cloudy
5:55 AM 62.6 °F - 60.8 °F 94% 29.90 in 10.0 mi Calm Calm - N/A   Scattered Clouds
6:15 AM 62.6 °F - 60.8 °F 94% 29.90 in 10.0 mi Calm Calm - N/A   Scattered Clouds
6:35 AM 62.6 °F - 60.8 °F 94% 29.91 in 10.0 mi Calm Calm - N/A   Scattered Clouds
6:55 AM 62.6 °F - 60.8 °F 94% 29.91 in 10.0 mi Calm Calm - N/A   Clear
7:15 AM 62.6 °F - 60.8 °F 94% 29.91 in 10.0 mi Calm Calm - N/A   Clear
7:35 AM 64.4 °F - 62.6 °F 94% 29.91 in 10.0 mi Calm Calm - N/A   Clear
7:55 AM 68.0 °F - 62.6 °F 83% 29.91 in 10.0 mi Calm Calm - N/A   Clear
8:15 AM 69.8 °F - 62.6 °F 78% 29.91 in 10.0 mi Calm Calm - N/A   Clear
8:35 AM 69.8 °F - 62.6 °F 78% 29.91 in 10.0 mi SW 4.6 mph - N/A   Clear
8:55 AM 71.6 °F - 62.6 °F 73% 29.91 in 10.0 mi SSW 5.8 mph - N/A   Clear
9:15 AM 73.4 °F - 62.6 °F 69% 29.91 in 10.0 mi SSW 5.8 mph - N/A   Clear
9:35 AM 77.0 °F - 62.6 °F 61% 29.92 in 10.0 mi SSW 6.9 mph - N/A   Clear
9:55 AM 77.0 °F - 64.4 °F 65% 29.90 in 10.0 mi SSW 6.9 mph - N/A   Clear
10:15 AM 77.0 °F - 62.6 °F 61% 29.90 in 10.0 mi SSW 6.9 mph - N/A   Clear
10:35 AM 78.8 °F - 64.4 °F 61% 29.90 in 10.0 mi SW 6.9 mph - N/A   Clear
10:55 AM 80.6 °F 82.3 °F 64.4 °F 58% 29.90 in 10.0 mi SW 9.2 mph - N/A   Clear
11:15 AM 82.4 °F 83.9 °F 64.4 °F 54% 29.90 in 10.0 mi SSW 6.9 mph - N/A   Clear
11:35 AM 82.4 °F 83.9 °F 64.4 °F 54% 29.90 in 10.0 mi SW 10.4 mph 17.3 mph N/A   Scattered Clouds
11:55 AM 82.4 °F 83.9 °F 64.4 °F 54% 29.89 in 10.0 mi SSW 6.9 mph - N/A   Scattered Clouds
12:15 PM 86.0 °F 89.4 °F 68.0 °F 55% 29.88 in 10.0 mi SW 8.1 mph - N/A   Scattered Clouds
12:35 PM 86.0 °F 88.2 °F 66.2 °F 51% 29.89 in 10.0 mi SSW 8.1 mph 17.3 mph N/A   Scattered Clouds
12:55 PM 86.0 °F 89.4 °F 68.0 °F 55% 29.87 in 10.0 mi WSW 9.2 mph - N/A   Mostly Cloudy
1:15 PM 87.8 °F 90.4 °F 66.2 °F 49% 29.87 in 10.0 mi SW 6.9 mph - N/A   Scattered Clouds
1:35 PM 86.0 °F 87.3 °F 64.4 °F 48% 29.86 in 10.0 mi SSW 9.2 mph - N/A   Scattered Clouds
1:55 PM 86.0 °F 86.6 °F 62.6 °F 45% 29.85 in 10.0 mi SW 13.8 mph 18.4 mph N/A   Mostly Cloudy
2:15 PM 87.8 °F 88.5 °F 62.6 °F 43% 29.85 in 10.0 mi SSW 10.4 mph 17.3 mph N/A   Scattered Clouds
2:35 PM 86.0 °F 86.6 °F 62.6 °F 45% 29.84 in 10.0 mi SW 6.9 mph - N/A   Clear
2:55 PM 89.6 °F 90.1 °F 62.6 °F 40% 29.84 in 10.0 mi WSW 8.1 mph - N/A   Scattered Clouds
3:15 PM 87.8 °F 88.5 °F 62.6 °F 43% 29.84 in 10.0 mi WSW 11.5 mph 18.4 mph N/A   Scattered Clouds
3:35 PM 86.0 °F 86.6 °F 62.6 °F 45% 29.83 in 10.0 mi SW 11.5 mph 16.1 mph N/A   Scattered Clouds
3:55 PM 86.0 °F 86.6 °F 62.6 °F 45% 29.83 in 10.0 mi SW 12.7 mph 16.1 mph N/A   Scattered Clouds
4:15 PM 87.8 °F 87.6 °F 60.8 °F 40% 29.82 in 10.0 mi WSW 6.9 mph - N/A   Scattered Clouds
4:35 PM 87.8 °F 87.6 °F 60.8 °F 40% 29.81 in 10.0 mi WSW 10.4 mph - N/A   Scattered Clouds
4:55 PM 87.8 °F 87.6 °F 60.8 °F 40% 29.80 in 10.0 mi West 8.1 mph - N/A   Clear
5:15 PM 86.0 °F 85.4 °F 59.0 °F 40% 29.80 in 10.0 mi West 8.1 mph 16.1 mph N/A   Clear
5:35 PM 86.0 °F 84.9 °F 57.2 °F 37% 29.81 in 10.0 mi WSW 8.1 mph 20.7 mph N/A   Clear
5:55 PM 86.0 °F 85.4 °F 59.0 °F 40% 29.80 in 10.0 mi WSW 10.4 mph - N/A   Clear
6:15 PM 86.0 °F 84.5 °F 55.4 °F 35% 29.81 in 10.0 mi WSW 8.1 mph - N/A   Clear
6:35 PM 86.0 °F 84.9 °F 57.2 °F 37% 29.81 in 10.0 mi WSW 5.8 mph - N/A   Clear
6:55 PM 82.4 °F 82.5 °F 59.0 °F 45% 29.81 in 10.0 mi WSW 5.8 mph - N/A   Clear
7:15 PM 82.4 °F 82.5 °F 59.0 °F 45% 29.81 in 10.0 mi WSW 6.9 mph - N/A   Clear
7:35 PM 80.6 °F 81.1 °F 59.0 °F 48% 29.81 in 10.0 mi WSW 8.1 mph - N/A   Clear
7:55 PM 78.8 °F - 60.8 °F 54% 29.81 in 10.0 mi SW 4.6 mph - N/A   Scattered Clouds
8:15 PM 78.8 °F - 60.8 °F 54% 29.82 in 10.0 mi Calm Calm - N/A   Mostly Cloudy
8:35 PM 77.0 °F - 60.8 °F 57% 29.82 in 10.0 mi SSW 3.5 mph - N/A   Mostly Cloudy
8:55 PM 78.8 °F - 59.0 °F 51% 29.81 in 10.0 mi SW 3.5 mph - N/A   Scattered Clouds
9:15 PM 75.2 °F - 60.8 °F 61% 29.82 in 10.0 mi Calm Calm - N/A   Mostly Cloudy
9:35 PM 75.2 °F - 60.8 °F 61% 29.82 in 10.0 mi Calm Calm - N/A   Overcast
9:55 PM 75.2 °F - 60.8 °F 61% 29.83 in 10.0 mi SW 4.6 mph - N/A   Overcast
10:15 PM 75.2 °F - 55.4 °F 50% 29.85 in 10.0 mi WSW 8.1 mph 24.2 mph N/A   Mostly Cloudy
10:35 PM 69.8 °F - 59.0 °F 68% 29.85 in 10.0 mi West 3.5 mph - N/A Rain Light Rain
10:55 PM 68.0 °F - 60.8 °F 78% 29.86 in 10.0 mi SSW 3.5 mph - N/A Rain Light Rain
11:15 PM 68.0 °F - 60.8 °F 78% 29.87 in 10.0 mi Calm Calm - N/A   Mostly Cloudy
11:35 PM 68.0 °F - 60.8 °F 78% 29.87 in 10.0 mi SSW 4.6 mph - N/A   Mostly Cloudy
11:55 PM 68.0 °F - 60.8 °F 78% 29.86 in 10.0 mi Calm Calm - N/A   Mostly Cloudy